Date String (YYYY-MM-DD hh:mm:ss) UTC,Instrument flags,Ambient pressure (hPa),Sample flow (lpm),Bypass flow (lpm),Sample temperature (°C),Ambient temperature (°C),ASC tube jacket temperature (°C),LED temperature (°C),Box temperature (°C),Sample RH (%),Span deviation,Mass concentration (μg/m³),Mass concentration (μg/m³),Mass concentration (μg/m³)
DateTimeUTC,F1_M11,P_M11,Q1_M11,Q2_M11,T1_M11,T2_M11,T3_M11,T4_M11,T5_M11,U1_M11,ZSPAN_M11,X0_M11,X2_M11,X1_M11
2022-02-14 22:00:00,,0822.3,4.99,0.00,26.9,25.9,00.0,35.9,28.6,10.6,0000.0,0012.98,0006.53,0005.49
2022-02-14 22:01:00,,0822.3,5.02,0.00,26.8,25.9,00.0,35.9,28.6,10.8,0000.0,0012.86,0006.53,0005.50
2022-02-14 22:02:00,,0822.3,4.98,0.00,26.8,25.9,00.0,35.9,28.6,10.3,0000.0,0012.70,0006.48,0005.51
2022-02-14 22:03:00,,0822.3,5.00,0.00,26.8,25.9,00.0,35.9,28.6,10.5,0000.0,0012.64,0006.50,0005.52
2022-02-14 22:04:00,,0822.3,5.00,0.00,26.8,25.9,00.0,35.8,28.5,10.6,0000.0,0012.61,0006.54,0005.53
2022-02-14 22:05:00,,0822.2,4.99,0.00,26.8,25.9,00.0,35.8,28.5,10.4,0000.0,0012.55,0006.54,0005.53
2022-02-14 22:06:00,,0822.3,5.01,0.00,26.8,25.9,00.0,35.8,28.5,10.6,0000.0,0012.90,0006.57,0005.55
2022-02-14 22:07:00,,0822.2,4.99,0.00,26.8,25.9,00.0,35.8,28.5,10.9,0000.0,0013.09,0006.57,0005.56
2022-02-14 22:08:00,,0822.2,5.00,0.00,26.7,25.9,00.0,35.8,28.5,10.7,0000.0,0012.98,0006.53,0005.57
2022-02-14 22:09:00,,0822.2,5.00,0.00,26.7,25.8,00.0,35.8,28.5,11.1,0000.0,0012.63,0006.55,0005.57
2022-02-14 22:10:00,,0822.3,5.00,0.00,26.7,25.8,00.0,35.8,28.5,11.0,0000.0,0012.78,0006.52,0005.57
2022-02-14 22:11:00,,0822.2,4.99,0.00,26.7,25.9,00.0,35.8,28.5,10.9,0000.0,0012.74,0006.49,0005.56
2022-02-14 22:12:00,,0822.3,5.02,0.00,26.7,25.9,00.0,35.8,28.5,10.9,0000.0,0012.91,0006.54,0005.58
2022-02-14 22:13:00,,0822.4,4.98,0.00,26.8,26.0,00.0,35.8,28.5,10.9,0000.0,0013.55,0006.58,0005.59
2022-02-14 22:14:00,,0822.3,5.01,0.00,26.8,26.0,00.0,35.8,28.6,11.1,0000.0,0013.77,0006.62,0005.61
2022-02-14 22:15:00,,0822.3,4.99,0.00,26.8,26.0,00.0,35.7,28.6,11.0,0000.0,0014.14,0006.64,0005.62
2022-02-14 22:16:00,,0822.2,5.01,0.00,26.8,26.0,00.0,35.7,28.6,10.8,0000.0,0014.40,0006.68,0005.64
2022-02-14 22:17:00,,0822.2,4.99,0.00,26.8,26.0,00.0,35.7,28.6,10.8,0000.0,0014.28,0006.69,0005.64
2022-02-14 22:18:00,,0822.1,5.01,0.00,26.8,26.0,00.0,35.7,28.6,10.7,0000.0,0014.12,0006.72,0005.64
2022-02-14 22:19:00,,0822.2,4.99,0.00,26.8,26.0,00.0,35.7,28.5,10.6,0000.0,0014.20,0006.76,0005.67
2022-02-14 22:20:00,,0822.1,5.01,0.00,26.8,25.9,00.0,35.7,28.5,10.3,0000.0,0013.92,0006.71,0005.66
2022-02-14 22:21:00,,0822.1,4.99,0.00,26.8,25.9,00.0,35.7,28.5,11.2,0000.0,0013.61,0006.67,0005.67
2022-02-14 22:22:00,,0822.1,4.98,0.00,26.8,25.9,00.0,35.7,28.6,11.0,0000.0,0013.91,0006.68,0005.69
2022-02-14 22:23:00,,0822.1,5.01,0.00,26.8,26.0,00.0,35.7,28.6,11.1,0000.0,0014.34,0006.65,0005.70
2022-02-14 22:24:00,,0822.1,4.99,0.00,26.8,26.0,00.0,35.7,28.6,11.2,0000.0,0013.91,0006.65,0005.71
2022-02-14 22:25:00,,0822.1,4.99,0.00,26.8,26.0,00.0,35.7,28.6,11.2,0000.0,0014.50,0006.68,0005.71
2022-02-14 22:26:00,,0822.1,5.02,0.00,26.8,26.0,00.0,35.7,28.6,11.3,0000.0,0014.90,0006.69,0005.74
2022-02-14 22:27:00,,0822.1,4.99,0.00,26.8,26.1,00.0,35.7,28.7,11.2,0000.0,0015.39,0006.70,0005.79
2022-02-14 22:28:00,,0822.0,5.00,0.00,26.8,26.1,00.0,35.7,28.7,11.1,0000.0,0015.56,0006.74,0005.84
2022-02-14 22:29:00,,0821.9,5.01,0.00,26.9,26.1,00.0,35.7,28.7,11.1,0000.0,0015.59,0006.74,0005.90
2022-02-14 22:30:00,,0822.0,4.99,0.00,26.9,26.1,00.0,35.8,28.7,09.8,0000.0,0015.32,0006.70,0005.90
2022-02-14 22:31:00,,0821.8,5.02,0.00,26.9,26.2,00.0,35.8,28.7,08.0,0000.0,0015.14,0006.61,0005.82
2022-02-14 22:32:00,,0821.8,4.98,0.00,26.9,26.2,00.0,35.8,28.7,05.9,0000.0,0014.90,0006.43,0005.60
2022-02-14 22:33:00,,0822.0,5.02,0.00,26.9,26.2,00.0,35.8,28.7,06.9,0000.0,0014.12,0006.20,0005.39
2022-02-14 22:34:00,,0821.9,4.98,0.00,26.9,26.1,00.0,35.8,28.6,06.6,0000.0,0013.24,0005.97,0005.19
2022-02-14 22:35:00,,0822.0,5.00,0.00,26.8,26.1,00.0,35.8,28.6,06.5,0000.0,0012.96,0005.72,0004.99
2022-02-14 22:36:00,,0822.1,5.00,0.00,26.8,26.1,00.0,35.8,28.6,06.2,0000.0,0011.81,0005.42,0004.79
2022-02-14 22:37:00,,0821.8,5.01,0.00,26.8,26.1,00.0,35.8,28.6,05.5,0000.0,0010.69,0005.14,0004.56
2022-02-14 22:38:00,,0821.9,5.00,0.00,26.8,26.2,00.0,35.8,28.6,05.6,0000.0,0009.34,0004.82,0004.26
2022-02-14 22:39:00,,0821.9,5.01,0.00,26.8,26.1,00.0,35.8,28.6,06.2,0000.0,0008.47,0004.48,0003.99
2022-02-14 22:40:00,,0821.9,4.99,0.00,26.8,26.1,00.0,35.8,28.6,06.0,0000.0,0007.77,0004.16,0003.70
2022-02-14 22:41:00,,0821.8,5.01,0.00,26.8,26.1,00.0,35.8,28.6,05.9,0000.0,0007.42,0003.88,0003.45
2022-02-14 22:42:00,,0821.8,5.01,0.00,26.8,26.1,00.0,35.8,28.6,05.1,0000.0,0006.89,0003.68,0003.29
2022-02-14 22:43:00,,0821.8,4.99,0.00,26.8,26.0,00.0,35.8,28.5,04.5,0000.0,0006.30,0003.49,0003.16
2022-02-14 22:44:00,,0821.8,5.01,0.00,26.8,26.0,00.0,35.8,28.5,04.6,0000.0,0006.11,0003.37,0003.06
2022-02-14 22:45:00,,0821.8,4.98,0.00,26.8,26.0,00.0,35.8,28.5,04.7,0000.0,0006.03,0003.22,0002.84
2022-02-14 22:46:00,,0821.9,4.99,0.00,26.8,26.0,00.0,35.8,28.5,04.7,0000.0,0005.51,0003.10,0002.65
2022-02-14 22:47:00,,0822.0,5.02,0.00,26.8,26.0,00.0,35.7,28.5,04.6,0000.0,0004.96,0002.90,0002.45
2022-02-14 22:48:00,,0822.0,4.98,0.00,26.8,26.0,00.0,35.7,28.5,05.3,0000.0,0004.86,0002.74,0002.32
2022-02-14 22:49:00,,0821.9,5.01,0.00,26.8,26.0,00.0,35.7,28.5,04.9,0000.0,0004.70,0002.71,0002.26
2022-02-14 22:50:00,,0821.8,5.00,0.00,26.8,26.0,00.0,35.8,28.5,04.6,0000.0,0004.68,0002.61,0002.16
2022-02-14 22:51:00,,0821.9,5.02,0.00,26.8,26.0,00.0,35.7,28.4,04.4,0000.0,0004.47,0002.45,0002.02
2022-02-14 22:52:00,,0821.9,4.99,0.00,26.7,26.0,00.0,35.7,28.5,04.4,0000.0,0004.23,0002.32,0001.89
2022-02-14 22:53:00,,0821.8,5.01,0.00,26.7,26.0,00.0,35.7,28.4,04.4,0000.0,0004.21,0002.27,0001.79
2022-02-14 22:54:00,,0821.9,5.00,0.00,26.7,26.0,00.0,35.7,28.4,04.4,0000.0,0004.38,0002.33,0001.80
2022-02-14 22:55:00,,0822.0,4.99,0.00,26.8,26.0,00.0,35.7,28.4,08.2,0000.0,0004.73,0002.61,0002.03
2022-02-14 22:56:00,,0821.9,5.01,0.00,26.8,26.0,00.0,35.7,28.5,09.6,0000.0,0005.65,0003.25,0002.59
2022-02-14 22:57:00,,0822.0,5.00,0.00,26.8,26.0,00.0,35.7,28.5,08.7,0000.0,0006.49,0003.57,0003.06
2022-02-14 22:58:00,,0822.0,5.02,0.00,26.8,26.0,00.0,35.7,28.5,07.2,0000.0,0007.12,0003.78,0003.27
2022-02-14 22:59:00,,0821.8,4.98,0.00,26.8,26.0,00.0,35.8,28.5,07.0,0000.0,0007.50,0003.97,0003.42
